Location: Coll
(42.4728°N, 0.7714°E)
Time: 12:32:13
(UTC+00:00)

Cosmos 44 Rocket - Pass Details

Date: 23 October 2020
Orbit: 642 x 748 km, 65.1° (Epoch: 30 November)

Event Time Altitude Azimuth Distance (km) Brightness Sun altitude
Exits shadow 04:42:05 - 333° (NNW) 2,366 5.8 -18.6°
Reaches altitude 10° 04:42:26 10° 333° (NNW) 2,237 5.7 -18.6°
Maximum altitude 04:47:30 59° 54° (NE) 852 3.9 -17.6°
Drops below altitude 10° 04:52:37 10° 134° (SE) 2,258 6.6 -16.7°
Sets 04:55:03 0° 138° (SE) 3,180 7.4 -16.3°
